Time,TemperatureF,DewpointF,PressureIn,WindDirection,WindDirectionDegrees,WindSpeedMPH,WindSpeedGustMPH,Humidity,HourlyPrecipIn,Conditions,Clouds,dailyrainin,SoftwareType,DateUTC
2013-11-02 00:00:00,52.7,33.0,27.95,WNW,292,0.0,0.0,47,0.00,CLR,,0.00,WeatherDisplay:10.37,2013-11-02 04:00:00,
2013-11-02 00:10:00,52.0,32.9,27.92,NW,311,0.0,2.0,48,0.00,CLR,,0.00,WeatherDisplay:10.37,2013-11-02 04:10:00,
2013-11-02 00:20:00,51.8,32.7,27.92,NW,315,0.0,2.0,48,0.00,CLR,,0.00,WeatherDisplay:10.37,2013-11-02 04:20:00,
2013-11-02 00:30:00,51.4,32.9,27.92,WNW,303,0.0,1.0,49,0.00,CLR,,0.00,WeatherDisplay:10.37,2013-11-02 04:30:00,
2013-11-02 00:40:00,51.3,33.2,27.92,NW,316,2.0,2.0,50,0.00,CLR,,0.00,WeatherDisplay:10.37,2013-11-02 04:40:00,
2013-11-02 00:50:00,52.3,32.2,27.92,WSW,247,2.0,5.0,46,0.00,CLR,,0.00,WeatherDisplay:10.37,2013-11-02 04:50:00,
2013-11-02 01:00:00,52.8,31.4,27.92,SW,219,0.0,3.0,44,0.00,CLR,,0.00,WeatherDisplay:10.37,2013-11-02 05:00:00,
2013-11-02 01:10:00,51.6,30.9,27.92,SW,227,0.0,2.0,45,0.00,CLR,,0.00,WeatherDisplay:10.37,2013-11-02 05:10:00,
2013-11-02 01:20:00,50.7,30.1,27.92,SW,233,0.0,1.0,45,0.00,CLR,,0.00,WeatherDisplay:10.37,2013-11-02 05:20:00,
2013-11-02 01:30:00,49.6,30.7,27.92,West,266,0.0,2.0,48,0.00,CLR,,0.00,WeatherDisplay:10.37,2013-11-02 05:30:00,
2013-11-02 01:40:00,48.7,30.4,27.92,WNW,286,0.0,0.0,49,0.00,CLR,,0.00,WeatherDisplay:10.37,2013-11-02 05:40:00,
2013-11-02 01:50:00,48.4,30.1,27.92,WNW,292,0.0,0.0,49,0.00,CLR,,0.00,WeatherDisplay:10.37,2013-11-02 05:50:00,
2013-11-02 02:00:00,47.5,30.7,27.89,West,281,0.0,0.0,52,0.00,CLR,,0.00,WeatherDisplay:10.37,2013-11-02 06:00:00,
2013-11-02 02:10:00,47.3,31.0,27.89,West,264,0.0,0.0,53,0.00,CLR,,0.00,WeatherDisplay:10.37,2013-11-02 06:10:00,
2013-11-02 02:20:00,47.1,31.3,27.89,WSW,248,0.0,0.0,54,0.00,CLR,,0.00,WeatherDisplay:10.37,2013-11-02 06:20:00,
2013-11-02 02:30:00,46.8,31.4,27.92,WSW,248,0.0,0.0,55,0.00,CLR,,0.00,WeatherDisplay:10.37,2013-11-02 06:30:00,
2013-11-02 02:40:00,46.7,32.3,27.92,SW,227,0.0,0.0,57,0.00,CLR,,0.00,WeatherDisplay:10.37,2013-11-02 06:40:00,
2013-11-02 02:50:00,47.1,33.1,27.92,WSW,247,0.0,0.0,58,0.00,CLR,,0.00,WeatherDisplay:10.37,2013-11-02 06:50:00,
2013-11-02 03:00:00,47.1,32.7,27.92,SW,229,0.0,0.0,57,0.00,CLR,,0.00,WeatherDisplay:10.37,2013-11-02 07:00:00,
2013-11-02 03:10:00,47.1,32.7,27.92,WSW,243,0.0,0.0,57,0.00,CLR,,0.00,WeatherDisplay:10.37,2013-11-02 07:10:00,
2013-11-02 03:20:00,46.8,32.3,27.92,SSW,211,0.0,0.0,57,0.00,CLR,,0.00,WeatherDisplay:10.37,2013-11-02 07:20:00,
2013-11-02 03:30:00,46.6,32.1,27.89,SSW,202,0.0,0.0,57,0.00,CLR,,0.00,WeatherDisplay:10.37,2013-11-02 07:30:00,
2013-11-02 03:40:00,46.2,32.7,27.89,SSW,202,0.0,0.0,59,0.00,CLR,,0.00,WeatherDisplay:10.37,2013-11-02 07:40:00,
2013-11-02 03:50:00,46.2,33.1,27.89,SSW,202,0.0,0.0,60,0.00,CLR,,0.00,WeatherDisplay:10.37,2013-11-02 07:50:00,
2013-11-02 04:00:00,46.1,33.0,27.89,SSW,202,0.0,0.0,60,0.00,CLR,,0.00,WeatherDisplay:10.37,2013-11-02 08:00:00,
2013-11-02 04:10:00,45.9,33.2,27.89,SSW,202,0.0,0.0,61,0.00,CLR,,0.00,WeatherDisplay:10.37,2013-11-02 08:10:00,
2013-11-02 04:20:00,45.5,33.2,27.89,SSW,202,0.0,0.0,62,0.00,CLR,,0.00,WeatherDisplay:10.37,2013-11-02 08:20:00,
2013-11-02 04:30:00,45.3,33.5,27.89,SSW,202,0.0,0.0,63,0.00,CLR,,0.00,WeatherDisplay:10.37,2013-11-02 08:30:00,
2013-11-02 04:40:00,45.3,34.2,27.89,West,261,0.0,0.0,65,0.00,CLR,,0.00,WeatherDisplay:10.37,2013-11-02 08:40:00,
2013-11-02 04:50:00,45.5,35.5,27.89,West,274,0.0,0.0,68,0.00,CLR,,0.00,WeatherDisplay:10.37,2013-11-02 08:50:00,
2013-11-02 05:00:00,45.7,35.3,27.89,WNW,292,0.0,0.0,67,0.00,CLR,,0.00,WeatherDisplay:10.37,2013-11-02 09:00:00,
2013-11-02 05:10:00,45.9,35.1,27.92,WNW,283,0.0,0.0,66,0.00,CLR,,0.00,WeatherDisplay:10.37,2013-11-02 09:10:00,
2013-11-02 05:20:00,45.9,34.8,27.92,WNW,290,0.0,0.0,65,0.00,CLR,,0.00,WeatherDisplay:10.37,2013-11-02 09:20:00,
2013-11-02 05:30:00,46.8,35.6,27.92,NE,55,0.0,0.0,65,0.00,CLR,,0.00,WeatherDisplay:10.37,2013-11-02 09:30:00,
2013-11-02 05:40:00,47.6,35.2,27.92,WNW,285,1.0,2.0,62,0.00,CLR,,0.00,WeatherDisplay:10.37,2013-11-02 09:40:00,
2013-11-02 05:50:00,47.1,33.1,27.92,West,278,0.0,1.0,58,0.00,CLR,,0.00,WeatherDisplay:10.37,2013-11-02 09:50:00,
2013-11-02 06:00:00,46.2,31.8,27.92,NNW,345,0.0,0.0,57,0.00,CLR,,0.00,WeatherDisplay:10.37,2013-11-02 10:00:00,
2013-11-02 06:10:00,45.5,31.6,27.92,WNW,302,0.0,0.0,58,0.00,CLR,,0.00,WeatherDisplay:10.37,2013-11-02 10:10:00,
2013-11-02 06:20:00,45.0,31.1,27.92,WNW,292,0.0,0.0,58,0.00,CLR,,0.00,WeatherDisplay:10.37,2013-11-02 10:20:00,
2013-11-02 06:30:00,44.4,31.8,27.92,WNW,292,0.0,0.0,61,0.00,CLR,,0.00,WeatherDisplay:10.37,2013-11-02 10:30:00,
2013-11-02 06:40:00,44.2,32.0,27.92,WNW,292,0.0,0.0,62,0.00,CLR,,0.00,WeatherDisplay:10.37,2013-11-02 10:40:00,
2013-11-02 06:50:00,43.9,32.9,27.92,WNW,292,0.0,0.0,65,0.00,CLR,,0.00,WeatherDisplay:10.37,2013-11-02 10:50:00,
2013-11-02 07:00:00,43.5,32.5,27.92,WNW,292,0.0,0.0,65,0.00,CLR,,0.00,WeatherDisplay:10.37,2013-11-02 11:00:00,
2013-11-02 07:10:00,43.0,32.1,27.92,WNW,292,0.0,0.0,65,0.00,CLR,,0.00,WeatherDisplay:10.37,2013-11-02 11:10:00,
2013-11-02 07:20:00,42.8,31.8,27.92,WNW,292,0.0,0.0,65,0.00,CLR,,0.00,WeatherDisplay:10.37,2013-11-02 11:20:00,
2013-11-02 07:30:00,42.8,31.8,27.92,WNW,292,0.0,0.0,65,0.00,CLR,,0.00,WeatherDisplay:10.37,2013-11-02 11:30:00,
2013-11-02 07:40:00,42.8,31.8,27.92,WNW,292,0.0,0.0,65,0.00,CLR,,0.00,WeatherDisplay:10.37,2013-11-02 11:40:00,
2013-11-02 07:50:00,42.8,31.8,27.92,WNW,292,0.0,0.0,65,0.00,CLR,,0.00,WeatherDisplay:10.37,2013-11-02 11:50:00,
2013-11-02 08:00:00,42.1,33.7,27.95,NW,306,0.0,0.0,72,0.00,CLR,,0.00,WeatherDisplay:10.37,2013-11-02 12:00:00,
2013-11-02 08:10:00,42.4,35.4,27.92,North,0,0.0,0.0,76,0.00,CLR,,0.00,WeatherDisplay:10.37,2013-11-02 12:10:00,
2013-11-02 08:20:00,42.3,36.5,27.92,North,11,0.0,2.0,80,0.00,CLR,,0.00,WeatherDisplay:10.37,2013-11-02 12:20:00,
2013-11-02 08:30:00,42.6,36.6,27.92,NNE,22,0.0,0.0,79,0.00,CLR,,0.00,WeatherDisplay:10.37,2013-11-02 12:30:00,
2013-11-02 08:40:00,42.8,36.4,27.92,NNE,22,0.0,0.0,78,0.00,CLR,,0.00,WeatherDisplay:10.37,2013-11-02 12:40:00,
2013-11-02 08:50:00,43.2,37.1,27.92,SE,125,1.0,2.0,79,0.00,CLR,,0.00,WeatherDisplay:10.37,2013-11-02 12:50:00,
2013-11-02 09:00:00,43.9,37.8,27.95,SSW,202,2.0,3.0,79,0.00,CLR,,0.00,WeatherDisplay:10.37,2013-11-02 13:00:00,
2013-11-02 09:10:00,44.6,38.5,27.95,SW,215,2.0,4.0,79,0.00,CLR,,0.00,WeatherDisplay:10.37,2013-11-02 13:10:00,
2013-11-02 09:20:00,45.7,41.4,27.95,SW,215,3.0,6.0,85,0.00,CLR,,0.00,WeatherDisplay:10.37,2013-11-02 13:20:00,
2013-11-02 09:30:00,46.8,41.6,27.95,SW,214,3.0,9.0,82,0.00,CLR,,0.00,WeatherDisplay:10.37,2013-11-02 13:30:00,
2013-11-02 09:40:00,48.2,40.6,27.95,SW,220,5.0,7.0,75,0.00,CLR,,0.00,WeatherDisplay:10.37,2013-11-02 13:40:00,
2013-11-02 09:50:00,49.3,39.9,27.95,SW,223,3.0,7.0,70,0.00,CLR,,0.00,WeatherDisplay:10.37,2013-11-02 13:50:00,
2013-11-02 10:00:00,49.8,39.3,27.98,SW,235,2.0,4.0,67,0.00,CLR,,0.00,WeatherDisplay:10.37,2013-11-02 14:00:00,
2013-11-02 10:10:00,50.0,33.5,27.95,WSW,251,2.0,6.0,53,0.00,CLR,,0.00,WeatherDisplay:10.37,2013-11-02 14:10:00,
2013-11-02 10:20:00,51.2,34.2,27.95,WSW,243,2.0,5.0,52,0.00,CLR,,0.00,WeatherDisplay:10.37,2013-11-02 14:20:00,
2013-11-02 10:30:00,52.2,35.1,27.95,WSW,248,1.0,4.0,52,0.00,CLR,,0.00,WeatherDisplay:10.37,2013-11-02 14:30:00,
2013-11-02 10:40:00,52.2,31.5,27.95,WSW,239,6.0,9.0,45,0.00,CLR,,0.00,WeatherDisplay:10.37,2013-11-02 14:40:00,
2013-11-02 10:50:00,52.2,30.9,27.95,SW,233,5.0,9.0,44,0.00,CLR,,0.00,WeatherDisplay:10.37,2013-11-02 14:50:00,
2013-11-02 11:00:00,52.5,31.8,27.95,WSW,238,5.0,9.0,45,0.00,CLR,,0.00,WeatherDisplay:10.37,2013-11-02 15:00:00,
2013-11-02 11:10:00,52.9,32.6,27.95,WSW,249,2.0,9.0,46,0.00,CLR,,0.00,WeatherDisplay:10.37,2013-11-02 15:10:00,
2013-11-02 11:20:00,53.2,30.7,27.95,SW,222,5.0,7.0,42,0.00,CLR,,0.00,WeatherDisplay:10.37,2013-11-02 15:20:00,
2013-11-02 11:30:00,54.1,31.5,27.95,SW,220,6.0,10.0,42,0.00,CLR,,0.00,WeatherDisplay:10.37,2013-11-02 15:30:00,
2013-11-02 11:40:00,54.5,33.6,27.95,SSW,208,7.0,9.0,45,0.00,CLR,,0.00,WeatherDisplay:10.37,2013-11-02 15:40:00,
2013-11-02 11:50:00,54.0,32.0,27.95,SSW,213,5.0,8.0,43,0.00,CLR,,0.00,WeatherDisplay:10.37,2013-11-02 15:50:00,
2013-11-02 12:00:00,54.7,28.9,27.95,SW,227,6.0,10.0,37,0.00,CLR,,0.00,WeatherDisplay:10.37,2013-11-02 16:00:00,
2013-11-02 12:10:00,55.0,27.9,27.95,WSW,248,6.0,10.0,35,0.00,CLR,,0.00,WeatherDisplay:10.37,2013-11-02 16:10:00,
2013-11-02 12:20:00,55.2,25.1,27.95,SW,223,3.0,8.0,31,0.00,CLR,,0.00,WeatherDisplay:10.37,2013-11-02 16:20:00,
2013-11-02 12:30:00,55.2,25.1,27.95,SW,225,7.0,13.0,31,0.00,CLR,,0.00,WeatherDisplay:10.37,2013-11-02 16:30:00,
2013-11-02 12:40:00,55.2,25.1,27.95,WSW,245,3.0,10.0,31,0.00,CLR,,0.00,WeatherDisplay:10.37,2013-11-02 16:40:00,
2013-11-02 12:50:00,55.2,25.1,27.95,WSW,239,3.0,8.0,31,0.00,CLR,,0.00,WeatherDisplay:10.37,2013-11-02 16:50:00,
2013-11-02 13:00:00,55.2,25.1,27.95,WSW,239,6.0,10.0,31,0.00,CLR,,0.00,WeatherDisplay:10.37,2013-11-02 17:00:00,
2013-11-02 13:10:00,55.2,25.1,27.96,WSW,254,5.0,8.0,31,0.00,CLR,,0.00,WeatherDisplay:10.37,2013-11-02 17:10:00,
2013-11-02 13:20:00,55.2,25.1,27.98,SW,234,6.0,12.0,31,0.00,CLR,,0.00,WeatherDisplay:10.37,2013-11-02 17:20:00,
2013-11-02 13:30:00,55.2,25.1,27.95,WSW,253,5.0,9.0,31,0.00,CLR,,0.00,WeatherDisplay:10.37,2013-11-02 17:30:00,
2013-11-02 13:40:00,56.3,22.7,27.95,WSW,237,8.0,15.0,27,0.00,CLR,,0.00,WeatherDisplay:10.37,2013-11-02 17:40:00,
2013-11-02 13:50:00,56.3,21.8,27.95,SW,216,9.0,12.0,26,0.00,CLR,,0.00,WeatherDisplay:10.37,2013-11-02 17:50:00,
2013-11-02 14:00:00,56.3,21.8,27.95,SW,228,6.0,12.0,26,0.00,CLR,,0.00,WeatherDisplay:10.37,2013-11-02 18:00:00,
2013-11-02 14:10:00,59.4,23.5,27.95,SW,229,7.0,14.0,25,0.00,CLR,,0.00,WeatherDisplay:10.37,2013-11-02 18:10:00,
2013-11-02 14:20:00,58.0,21.4,27.95,SW,233,7.0,14.0,24,0.00,CLR,,0.00,WeatherDisplay:10.37,2013-11-02 18:20:00,
2013-11-02 14:30:00,57.4,20.9,27.95,SW,233,7.0,10.0,24,0.00,CLR,,0.00,WeatherDisplay:10.37,2013-11-02 18:30:00,
2013-11-02 14:40:00,56.7,21.2,27.95,SW,236,6.0,12.0,25,0.00,CLR,,0.00,WeatherDisplay:10.37,2013-11-02 18:40:00,
2013-11-02 14:50:00,55.9,20.6,27.95,WSW,240,6.0,11.0,25,0.00,CLR,,0.00,WeatherDisplay:10.37,2013-11-02 18:50:00,
2013-11-02 15:00:00,56.1,20.7,27.95,SW,220,5.0,13.0,25,0.00,CLR,,0.00,WeatherDisplay:10.37,2013-11-02 19:00:00,
2013-11-02 15:10:00,57.2,21.6,27.95,SW,221,5.0,17.0,25,0.00,CLR,,0.00,WeatherDisplay:10.37,2013-11-02 19:10:00,
2013-11-02 15:20:00,58.3,21.6,27.95,WSW,255,5.0,13.0,24,0.00,CLR,,0.00,WeatherDisplay:10.37,2013-11-02 19:20:00,
2013-11-02 15:30:00,59.7,20.8,27.95,WSW,244,6.0,10.0,22,0.00,CLR,,0.00,WeatherDisplay:10.37,2013-11-02 19:30:00,
2013-11-02 15:40:00,60.6,21.5,27.95,WSW,238,7.0,15.0,22,0.00,CLR,,0.00,WeatherDisplay:10.37,2013-11-02 19:40:00,
2013-11-02 15:50:00,60.1,17.6,27.95,SW,226,8.0,13.0,19,0.00,CLR,,0.00,WeatherDisplay:10.37,2013-11-02 19:50:00,
2013-11-02 16:00:00,59.9,17.5,27.98,WSW,237,6.0,13.0,19,0.00,CLR,,0.00,WeatherDisplay:10.37,2013-11-02 20:00:00,
2013-11-02 16:10:00,59.9,20.9,27.98,SW,228,6.0,13.0,22,0.00,CLR,,0.00,WeatherDisplay:10.37,2013-11-02 20:10:00,
2013-11-02 16:20:00,60.1,17.6,27.98,WSW,245,6.0,13.0,19,0.00,CLR,,0.00,WeatherDisplay:10.37,2013-11-02 20:20:00,
2013-11-02 16:30:00,59.1,16.8,27.98,West,259,6.0,9.0,19,0.00,CLR,,0.00,WeatherDisplay:10.37,2013-11-02 20:30:00,
2013-11-02 16:40:00,58.8,16.6,27.98,WSW,257,2.0,7.0,19,0.00,CLR,,0.00,WeatherDisplay:10.37,2013-11-02 20:40:00,
2013-11-02 16:50:00,57.0,18.5,27.98,WSW,256,3.0,10.0,22,0.00,CLR,,0.00,WeatherDisplay:10.37,2013-11-02 20:50:00,
2013-11-02 17:00:00,57.0,18.5,27.98,West,267,6.0,14.0,22,0.00,CLR,,0.00,WeatherDisplay:10.37,2013-11-02 21:00:00,
2013-11-02 17:10:00,57.0,18.5,27.98,NW,308,3.0,8.0,22,0.00,CLR,,0.00,WeatherDisplay:10.37,2013-11-02 21:10:00,
2013-11-02 17:20:00,57.0,18.5,27.98,WNW,301,3.0,7.0,22,0.00,CLR,,0.00,WeatherDisplay:10.37,2013-11-02 21:20:00,
2013-11-02 17:30:00,57.0,18.5,27.98,West,271,3.0,8.0,22,0.00,CLR,,0.00,WeatherDisplay:10.37,2013-11-02 21:30:00,
2013-11-02 17:40:00,57.0,18.5,27.98,West,268,2.0,6.0,22,0.00,CLR,,0.00,WeatherDisplay:10.37,2013-11-02 21:40:00,
2013-11-02 17:50:00,54.3,20.1,27.98,West,275,2.0,9.0,26,0.00,CLR,,0.00,WeatherDisplay:10.37,2013-11-02 21:50:00,
2013-11-02 18:00:00,54.7,20.4,27.98,WSW,253,2.0,6.0,26,0.00,CLR,,0.00,WeatherDisplay:10.37,2013-11-02 22:00:00,
2013-11-02 18:10:00,54.2,20.0,27.98,West,259,2.0,5.0,26,0.00,CLR,,0.00,WeatherDisplay:10.37,2013-11-02 22:10:00,
2013-11-02 18:20:00,53.4,19.3,27.98,West,270,5.0,8.0,26,0.00,CLR,,0.00,WeatherDisplay:10.37,2013-11-02 22:20:00,
2013-11-02 18:30:00,53.1,19.0,28.01,WSW,242,1.0,9.0,26,0.00,CLR,,0.00,WeatherDisplay:10.37,2013-11-02 22:30:00,
2013-11-02 18:40:00,52.2,18.3,28.01,NW,307,3.0,6.0,26,0.00,CLR,,0.00,WeatherDisplay:10.37,2013-11-02 22:40:00,
2013-11-02 18:50:00,52.0,18.1,28.01,West,261,1.0,6.0,26,0.00,CLR,,0.00,WeatherDisplay:10.37,2013-11-02 22:50:00,
2013-11-02 19:00:00,52.0,18.1,28.01,NW,320,2.0,4.0,26,0.00,CLR,,0.00,WeatherDisplay:10.37,2013-11-02 23:00:00,
2013-11-02 19:10:00,50.6,18.6,28.01,NW,322,1.0,6.0,28,0.00,CLR,,0.00,WeatherDisplay:10.37,2013-11-02 23:10:00,
2013-11-02 19:20:00,50.0,18.1,28.01,NW,315,1.0,2.0,28,0.00,CLR,,0.00,WeatherDisplay:10.37,2013-11-02 23:20:00,
2013-11-02 19:30:00,49.6,19.4,28.01,NW,307,1.0,4.0,30,0.00,CLR,,0.00,WeatherDisplay:10.37,2013-11-02 23:30:00,
2013-11-02 19:40:00,49.1,19.7,28.04,NW,322,1.0,3.0,31,0.00,CLR,,0.00,WeatherDisplay:10.37,2013-11-02 23:40:00,
2013-11-02 19:50:00,48.9,19.6,28.04,NW,314,2.0,4.0,31,0.00,CLR,,0.00,WeatherDisplay:10.37,2013-11-02 23:50:00,
2013-11-02 20:00:00,48.6,20.7,28.04,NNW,328,1.0,4.0,33,0.00,CLR,,0.00,WeatherDisplay:10.37,2013-11-03 00:00:00,
2013-11-02 20:10:00,48.4,19.8,28.07,NW,317,1.0,4.0,32,0.00,CLR,,0.00,WeatherDisplay:10.37,2013-11-03 00:10:00,
2013-11-02 20:20:00,47.7,20.6,28.07,NW,309,0.0,3.0,34,0.00,CLR,,0.00,WeatherDisplay:10.37,2013-11-03 00:20:00,
2013-11-02 20:30:00,47.8,21.5,28.07,WNW,298,1.0,5.0,35,0.00,CLR,,0.00,WeatherDisplay:10.37,2013-11-03 00:30:00,
2013-11-02 20:40:00,48.4,20.6,28.07,NW,311,2.0,5.0,33,0.00,CLR,,0.00,WeatherDisplay:10.37,2013-11-03 00:40:00,
2013-11-02 20:50:00,48.2,20.4,28.07,NW,318,0.0,5.0,33,0.00,CLR,,0.00,WeatherDisplay:10.37,2013-11-03 00:50:00,
2013-11-02 21:00:00,48.0,20.9,28.07,WNW,284,1.0,3.0,34,0.00,CLR,,0.00,WeatherDisplay:10.37,2013-11-03 01:00:00,
2013-11-02 21:10:00,47.3,20.3,28.07,NW,305,1.0,3.0,34,0.00,CLR,,0.00,WeatherDisplay:10.37,2013-11-03 01:10:00,
2013-11-02 21:20:00,47.0,20.7,28.07,NW,323,1.0,5.0,35,0.00,CLR,,0.00,WeatherDisplay:10.37,2013-11-03 01:20:00,
2013-11-02 21:30:00,46.9,22.0,28.09,NNW,347,1.0,6.0,37,0.00,CLR,,0.00,WeatherDisplay:10.37,2013-11-03 01:30:00,
2013-11-02 21:40:00,47.1,22.2,28.09,NW,306,3.0,6.0,37,0.00,CLR,,0.00,WeatherDisplay:10.37,2013-11-03 01:40:00,
2013-11-02 21:50:00,47.3,21.7,28.09,NW,319,1.0,5.0,36,0.00,CLR,,0.00,WeatherDisplay:10.37,2013-11-03 01:50:00,
2013-11-02 22:00:00,47.1,21.5,28.09,SW,235,1.0,3.0,36,0.00,CLR,,0.00,WeatherDisplay:10.37,2013-11-03 02:00:00,
2013-11-02 22:10:00,47.3,22.3,28.09,ENE,65,0.0,3.0,37,0.00,CLR,,0.00,WeatherDisplay:10.37,2013-11-03 02:10:00,
2013-11-02 22:20:00,46.6,21.7,28.09,NNW,340,1.0,2.0,37,0.00,CLR,,0.00,WeatherDisplay:10.37,2013-11-03 02:20:00,
2013-11-02 22:30:00,46.4,22.1,28.12,NW,317,0.0,3.0,38,0.00,CLR,,0.00,WeatherDisplay:10.37,2013-11-03 02:30:00,
2013-11-02 22:40:00,46.8,22.5,28.12,NW,323,0.0,6.0,38,0.00,CLR,,0.00,WeatherDisplay:10.37,2013-11-03 02:40:00,
2013-11-02 22:50:00,46.9,22.6,28.12,NNW,338,2.0,3.0,38,0.00,CLR,,0.00,WeatherDisplay:10.37,2013-11-03 02:50:00,
2013-11-02 23:00:00,46.9,22.6,28.12,NNW,343,2.0,2.0,38,0.00,CLR,,0.00,WeatherDisplay:10.37,2013-11-03 03:00:00,
2013-11-02 23:10:00,46.8,22.5,28.12,North,356,0.0,2.0,38,0.00,CLR,,0.00,WeatherDisplay:10.37,2013-11-03 03:10:00,
2013-11-02 23:20:00,46.1,21.9,28.12,SE,127,0.0,2.0,38,0.00,CLR,,0.00,WeatherDisplay:10.37,2013-11-03 03:20:00,
2013-11-02 23:30:00,45.9,22.3,28.12,West,281,1.0,3.0,39,0.00,CLR,,0.00,WeatherDisplay:10.37,2013-11-03 03:30:00,
2013-11-02 23:40:00,46.6,22.9,28.12,NW,310,2.0,6.0,39,0.00,CLR,,0.00,WeatherDisplay:10.37,2013-11-03 03:40:00,
2013-11-02 23:50:00,46.9,23.2,28.12,WNW,293,2.0,6.0,39,0.00,CLR,,0.00,WeatherDisplay:10.37,2013-11-03 03:50:00,